Location: North Runcton
(52.7000°N, 0.4333°E)
Time: 15:53:41
(UTC+00:00)

Cosmos 405 Rocket - Pass Details

Date: 19 May 2025
Orbit: 414 x 448 km, 81.2° (Epoch: 13 June)

Event Time Altitude Azimuth Distance (km) Brightness Sun altitude
Rises 23:01:43 0° 341° (NNW) 2,473 7.9 -16.4°
Reaches altitude 10° 23:03:53 10° 334° (NNW) 1,589 6.4 -16.5°
Maximum altitude 23:07:08 39° 264° (W) 682 3.3 -16.6°
Enters shadow 23:08:17 29° 219° (SW) 844 3.4 -16.6°
